Location: Chojny
(51.3494°N, 18.5224°E)
Time: 05:38:35
(UTC+00:00)

Daily predictions for brighter satellites

Satellite Brightness Start Highest point End
(mag) Time Altitude Azimuth Time Altitude Azimuth Time Altitude Azimuth
Meteor 2-19 Rocket 4.4 00:02:51 10° N 00:09:04 89° ENE 00:11:31 40° S
Okean 1 Rocket 3.2 00:09:30 56° W 00:09:48 58° WNW 00:14:08 10° N
SJ 16-02 1.2 00:09:53 68° WSW 00:10:19 76° WNW 00:14:45 10° NNE
SL-16 R/B 2.8 00:08:26 10° NW 00:13:37 37° WSW 00:13:48 37° WSW
Cosmos 2263 Rocket 3.1 00:14:58 29° SE 00:16:47 36° ESE 00:21:50 10° NE
SL-14 R/B 3.2 00:13:26 10° NNW 00:17:08 68° WNW 00:17:08 68° WNW
Cosmos 724 4.3 00:12:29 10° NW 00:18:28 67° SW 00:20:59 36° SSE
NOSS 2-3 (D) 4.4 00:21:05 37° SE 00:21:39 39° ESE 00:26:19 10° NE
MOZ.5/SAFIR/RUBIN 5/SL-8 3.8 00:22:13 56° SSW 00:22:56 64° WSW 00:27:39 10° NNW
SL-19 R/B 4.2 00:19:06 10° NNE 00:24:58 83° WNW 00:26:52 44° SSW
Cosmos 1937 Rocket 3.6 00:27:08 45° S 00:28:44 71° ESE 00:34:03 10° NNE
CZ-4C R/B 2.9 00:29:47 86° SW 00:29:50 87° W 00:33:33 10° NNW
Okean 1-7 Rocket 3.5 00:25:57 10° NNW 00:30:25 78° W 00:31:14 58° SSW
ADEOS II 3.4 00:25:51 10° NNE 00:30:34 32° E 00:33:35 18° SE
Cosmos 990 Rocket 3.9 00:29:47 48° SW 00:31:15 81° WNW 00:36:27 10° NNE
COBE Rocket 4.2 00:29:03 27° SE 00:31:26 59° ENE 00:36:02 10° N
Cosmos 2297 Rocket 3.3 00:28:55 22° W 00:31:49 35° NW 00:37:01 10° NNE
Cosmos 1626 Rocket 4.0 00:29:48 10° N 00:34:05 57° ENE 00:35:58 30° SE
CZ-4B R/B 4.3 00:30:11 10° NNE 00:34:39 39° E 00:36:44 26° SSE
Cosmos 2266 Rocket 3.9 00:28:58 10° N 00:35:20 83° W 00:38:25 32° S
Cosmos 1455 Rocket 3.0 00:35:30 54° S 00:36:31 86° E 00:41:01 10° NNE
ATLAS CENTAUR R/B 3.2 00:37:35 18° SE 00:38:17 19° ESE 00:41:05 10° ENE
USA 229 DEB 3.6 00:36:45 37° SSW 00:39:38 80° SE 00:46:36 10° NE
USA 229 3.6 00:36:53 37° SSW 00:39:44 80° SE 00:46:41 10° NE
UNK 3.8 00:39:00 49° SSW 00:40:01 63° WSW 00:44:41 10° NNW
Cosmos 1726 3.2 00:39:49 31° SE 00:40:46 37° E 00:44:10 10° NNE
Meteor 1-21 Rocket 4.4 00:39:32 10° N 00:45:05 67° ENE 00:49:17 18° SSE
GEOS 3 Rocket 4.1 00:39:57 10° NE 00:45:16 53° SE 00:47:19 35° S
Cosmos 1898 Rocket 3.6 00:43:57 41° SW 00:45:43 68° WNW 00:50:56 10° NNE
Cosmos 1932 4.4 00:40:43 10° NW 00:47:15 79° SW 00:53:37 10° SSE
Cosmos 1892 Rocket 4.1 00:43:14 10° NNW 00:47:26 41° W 00:47:51 40° WSW
Meteor 1-24 Rocket 4.1 00:42:57 10° NNW 00:47:58 40° W 00:49:07 35° WSW
Meteor 1-29 4.4 00:46:01 10° N 00:48:58 26° WNW 00:49:04 26° WNW
NOSS 2-3 (C) 3.8 00:48:09 45° S 00:49:22 65° SE 00:54:32 10° NE
NOSS 3-1 (A) 3.4 00:48:36 37° SSW 00:50:55 72° SE 00:57:28 10° NE
ARIANE 5 R/B 4.3 00:47:03 10° NE 00:51:28 27° E 00:55:51 10° SSE
IRAS Rocket 4.4 00:49:56 37° SSW 00:51:49 52° WSW 00:57:19 10° NNW
Cosmos 1603 3.7 00:48:46 10° NW 00:54:25 59° WSW 00:57:17 29° S
SL-19 R/B 4.5 00:51:42 21° SSE 00:56:16 77° WSW 01:02:19 10° NNW
Cosmos 1461 4.0 00:55:29 26° W 00:57:29 41° NW 01:01:56 10° NNE
CZ-2D R/B 2.3 00:59:57 10° N 01:05:26 67° WNW 01:08:00 32° SW
MINOTAUR IV R/B 4.5 01:01:00 10° NNW 01:05:32 84° WSW 01:08:58 17° SSE
Cosmos 1340 Rocket 3.0 01:07:07 44° SW 01:08:02 56° WNW 01:11:56 10° N
Cosmos 1758 3.4 01:08:43 43° SW 01:09:45 61° WNW 01:13:44 10° N
SL-16 R/B 3.0 01:09:25 29° SW 01:11:54 41° W 01:17:47 10° NNW
H-2A R/B 4.3 01:08:55 10° ESE 01:12:13 24° ENE 01:15:32 10° N
Nadezhda 2 Rocket 4.5 01:06:27 10° N 01:12:42 87° E 01:18:09 14° S
Cosmos 1943 3.3 01:07:31 10° NW 01:12:57 50° WSW 01:16:09 23° S
Timation 1 Rocket 4.4 01:10:12 29° SW 01:13:19 68° NW 01:19:18 10° NNE
Cosmos 1703 3.8 01:10:19 10° N 01:14:16 60° ENE 01:17:24 15° SSE
Cosmos 1825 Rocket 4.4 01:11:12 10° N 01:15:26 47° ENE 01:19:36 10° SSE
Cosmos 1626 4.2 01:13:36 10° NW 01:15:17 15° WNW 01:15:17 15° WNW
Cosmos 1125 Rocket 4.5 01:13:43 17° SSE 01:17:21 41° ESE 01:22:17 10° NE
IRS-1D 3.5 01:17:23 10° NNE 01:22:32 90° WSW 01:25:39 25° SSW
Cosmos 2227 Rocket 4.0 01:18:32 10° W 01:22:56 23° NW 01:27:22 10° NNE
NPP 3.9 01:18:55 10° N 01:24:12 56° WNW 01:27:04 26° SW
Cosmos 1544 Rocket 4.0 01:22:37 31° SW 01:24:17 47° WNW 01:28:38 10° N
Cosmos 1470 3.7 01:24:19 29° WSW 01:25:24 35° WNW 01:29:06 10° N
Cosmos 1953 2.3 01:23:54 33° SSW 01:25:39 79° W 01:29:45 10° N
Cosmos 1328 4.0 01:23:54 10° N 01:27:55 71° ENE 01:31:32 12° SSE
AQUA 4.1 01:27:22 10° N 01:32:00 52° WNW 01:34:26 26° SW
CENTAUR R/B 4.2 01:29:02 10° NW 01:36:15 46° NNE 01:44:24 10° E
Resurs 1-4 Rocket 2.9 01:33:52 10° N 01:38:41 37° WNW 01:41:36 21° WSW
Atlas Centaur 2 4.4 01:38:02 10° S 01:39:09 11° SSE 01:40:27 10° SSE
Meteor 2-16 Rocket 4.4 01:34:00 10° NNW 01:40:10 73° W 01:46:17 10° S
Exosat Rocket 4.4 01:36:53 21° SW 01:42:04 60° WNW 01:47:43 10° NNE
Cosmos 1602 Rocket 4.0 01:38:17 10° NNW 01:42:23 41° W 01:44:25 24° SW
Meteor 2-21 Rocket 4.5 01:36:58 10° NNW 01:42:56 60° W 01:48:18 13° S
Cosmos 1606 Rocket 4.1 01:42:16 12° S 01:46:23 58° E 01:50:46 10° NNE
USA 267 3.4 01:40:40 10° ESE 01:47:12 78° NNE 01:53:46 10° WNW
IDEFIX/ARIANE 42P 3.3 01:42:31 10° NNE 01:47:37 52° E 01:52:42 10° S
NOSS 2-3 (E) 4.2 01:44:49 20° WSW 01:47:47 56° NW 01:53:12 10° NE
SJ 16-02 3.6 01:47:21 10° WNW 01:49:43 14° NW 01:52:04 10° NNW
NOSS 3-1 (C) 4.2 01:48:09 14° W 01:53:02 47° NNW 01:59:40 10° NE
Cosmos 1048 Rocket 4.4 01:51:13 10° NW 01:56:03 42° WSW 02:00:55 10° S
IRS-P3 4.2 01:52:08 10° NNE 01:57:29 73° WNW 02:01:52 16° SSW
Cosmos 1908 3.2 01:56:15 19° SSW 01:58:55 69° W 02:02:51 10° N
Cosmos 2263 Rocket 2.7 01:56:40 18° WSW 02:00:36 47° NW 02:06:00 10° NNE
Cosmos 1386 Rocket 4.4 01:54:40 10° N 02:00:45 87° E 02:06:46 10° S
Cosmos 1726 Rocket 3.9 01:56:40 10° S 02:01:05 66° E 02:05:31 10° NNE
Cosmos 2298 Rocket 4.2 01:57:57 19° SW 02:01:48 62° WNW 02:07:07 10° NNE
Cosmos 2228 3.1 01:59:31 12° S 02:03:34 86° E 02:08:01 10° NNE
Meteor 1-16 Rocket 4.3 02:01:57 16° SSW 02:06:19 60° WNW 02:11:57 10° N
Meteor 1-28 Rocket 3.8 02:06:34 15° SSW 02:09:16 37° W 02:12:51 10° NNW
SL-08 R/B 3.8 02:05:26 10° S 02:10:07 42° W 02:14:49 10° NNW
ADEOS II 2.6 02:05:25 10° N 02:10:25 45° WNW 02:14:31 15° SW
Spot 4 Rocket 4.1 02:07:07 10° NNE 02:12:20 83° ESE 02:17:30 10° SSW
CZ-2C R/B 3.3 02:08:49 10° NNE 02:12:36 55° E 02:16:17 10° S
CZ-4B R/B 4.3 02:09:05 10° N 02:13:18 32° WNW 02:16:40 14° WSW
Cosmos 1356 Rocket 3.4 02:10:38 10° S 02:14:47 82° ESE 02:18:54 10° NNE
Cosmos 1726 3.7 02:14:19 15° WSW 02:16:07 20° WNW 02:18:54 10° NNW
Cosmos 2285 Rocket 4.2 02:10:59 15° SW 02:16:20 63° WNW 02:22:36 10° NNE
ATLAS CENTAUR R/B 1.4 02:13:46 17° SW 02:16:50 67° NW 02:20:41 10° NE
Cosmos 1269 Rocket 4.0 02:12:46 10° NNW 02:18:04 69° WSW 02:23:19 10° SSE
Cosmos 1300 3.0 02:15:24 10° S 02:19:11 69° E 02:23:00 10° NNE
NOSS 3-2 (A) 4.2 02:13:50 10° NW 02:21:07 78° NE 02:29:27 10° SE
Cosmos 1553 Rocket 4.0 02:15:32 10° SSW 02:21:33 64° WNW 02:27:42 10° N
NOSS 2-2 (C) 4.4 02:18:26 10° S 02:21:43 35° ESE 02:25:22 10° ENE
ERS-2 2.2 02:19:22 10° SSE 02:23:01 85° ENE 02:26:42 10° NNW
GEOS 3 Rocket 4.4 02:18:06 10° NE 02:23:16 47° NW 02:28:25 10° WSW
Cosmos 1844 Rocket 2.8 02:17:52 10° SSW 02:23:25 74° ESE 02:29:00 10° NNE
Meteor 1-11 4.4 02:19:08 10° NNW 02:24:42 53° W 02:30:11 10° S
OPS 6432 4.5 02:21:47 10° NW 02:24:48 52° SW 02:28:32 10° SSE
Cosmos 1833 Rocket 4.1 02:20:11 10° NNW 02:25:34 43° NE 02:30:56 10° ESE
CZ-4C R/B 2.8 02:23:30 10° S 02:26:48 66° WSW 02:30:14 10° NNW
NOSS 8 (H) 4.2 02:24:24 14° SW 02:26:55 71° SE 02:29:59 10° NE
Cosmos 1745 Rocket 4.1 02:23:28 10° NNW 02:29:37 58° W 02:35:39 10° S
ARIANE 5 R/B 2.9 02:25:46 10° N 02:30:52 54° WNW 02:35:57 10° SW
NOSS 3-2 (C) 4.5 02:23:56 10° NW 02:31:08 67° NE 02:39:22 10° ESE
CSL-04 DEB 4.5 02:27:27 10° S 02:31:17 52° WSW 02:35:12 10° NNW
Cosmos 2084 3.9 02:28:47 12° WSW 02:32:46 55° NW 02:37:11 10° NE
SeaSat 1 4.2 02:30:25 10° NE 02:34:46 30° ESE 02:39:04 10° S
Lacrosse 5 rocket 4.1 02:32:39 10° SSE 02:34:46 13° ESE 02:36:53 10° E
NOSS 8 (E) 4.4 02:32:47 13° WSW 02:35:27 57° NW 02:38:30 10° NE
Meteor 2-15 4.4 02:33:48 10° SSW 02:39:51 77° WNW 02:45:58 10° N
Cosmos 1867 3.6 02:35:53 10° NW 02:41:23 83° SW 02:46:50 10° SE
NOSS 3-1 (A) 4.4 02:36:46 10° W 02:42:20 41° NNW 02:48:55 10° NE
CZ-2D R/B 4.1 02:41:31 10° NNW 02:44:32 15° NW 02:47:33 10° W
Cosmos 2058 Rocket 3.1 02:43:09 10° SSW 02:47:36 70° WNW 02:52:01 10° N
H-2A R/B 2.3 02:44:07 10° S 02:48:01 42° W 02:51:57 10° NNW
CZ-2C R/B 2.8 02:46:59 10° NNE 02:51:34 62° ESE 02:56:11 10° S
Cosmos 2058 3.2 02:48:24 10° N 02:52:37 77° E 02:56:49 10° SSE
S3M 4.3 02:47:16 10° SSW 02:53:30 53° WNW 02:59:45 10° N
USA 215 3.4 02:49:36 10° ENE 02:56:10 75° SE 03:02:43 10° SW
Cosmos 1408 3.2 02:53:11 10° N 02:56:53 62° ENE 03:00:33 10° SSE
Landsat 5 4.0 02:53:15 10° SSW 02:57:01 37° W 03:00:57 10° NNW
In-Cosmos 22 Rocket 4.3 02:51:10 10° NNW 02:57:01 73° W 03:02:47 10° S
ATLAS 3B R/B 4.0 02:51:04 10° NW 02:57:30 45° NNE 03:04:08 10° ESE
Cosmos 1125 Rocket 4.3 02:54:37 10° WSW 02:59:30 37° NW 03:04:26 10° NNE
